| time (UTC) | temp C | wind direction | speed KPH | gust KPH | rain 1hr cm | rain 24hr cm | rain mn cm | humidity % | barometer mb |
| 20260503012536 | 8 | 222 | 0.0 | 0.0 | 0.00 | 0.00 | 0.00 | 72 | 1016.6 |
| 20260503012020 | 8 | 222 | 0.0 | 0.0 | 0.00 | 0.00 | 0.00 | 71 | 1016.7 |
| 20260503011519 | 8 | 222 | 0.0 | 0.0 | 0.00 | 0.00 | 0.00 | 70 | 1016.7 |
| 20260503011027 | 8 | 222 | 0.0 | 0.0 | 0.00 | 0.00 | 0.00 | 72 | 1016.7 |
| 20260503010526 | 8 | 222 | 0.0 | 0.0 | 0.00 | 0.00 | 0.00 | 71 | 1016.6 |
| 20260503010014 | 8 | 222 | 0.0 | 0.0 | 0.00 | 0.00 | 0.00 | 69 | 1016.5 |
| 20260503005532 | 9 | 223 | 0.0 | 0.0 | 0.00 | 0.00 | 0.00 | 69 | 1016.4 |
| 20260503005021 | 9 | 223 | 0.0 | 0.0 | 0.00 | 0.00 | 0.00 | 68 | 1016.4 |
| 20260503004526 | 10 | 223 | 0.0 | 0.0 | 0.00 | 0.00 | 0.00 | 67 | 1016.3 |
| 20260503004102 | 10 | 223 | 0.0 | 0.0 | 0.00 | 0.00 | 0.00 | 66 | 1016.2 |
| 20260503003550 | 10 | 223 | 0.0 | 0.0 | 0.00 | 0.00 | 0.00 | 64 | 1016.2 |
| 20260503003026 | 10 | 223 | 0.0 | 0.0 | 0.00 | 0.00 | 0.00 | 64 | 1016.2 |
| 20260503002540 | 10 | 223 | 0.0 | 0.0 | 0.00 | 0.00 | 0.00 | 63 | 1016.1 |
| 20260503002021 | 10 | 223 | 0.0 | 0.0 | 0.00 | 0.00 | 0.00 | 63 | 1016.0 |
| 20260503001523 | 11 | 227 | 0.0 | 0.0 | 0.00 | 0.00 | 0.00 | 63 | 1016.0 |
| 20260503001022 | 11 | 226 | 0.0 | 0.0 | 0.00 | 0.00 | 0.00 | 61 | 1015.9 |
| 20260503000518 | 11 | 226 | 0.0 | 0.0 | 0.00 | 0.00 | 0.00 | 56 | 1015.8 |
| 20260503000014 | 11 | 227 | 0.0 | 0.0 | 0.00 | 0.00 | 0.00 | 54 | 1015.8 |
| 20260502235533 | 11 | 227 | 0.0 | 0.0 | 0.00 | 0.00 | 0.00 | 53 | 1015.7 |
| 20260502235029 | 11 | 227 | 0.0 | 0.0 | 0.00 | 0.00 | 0.00 | 52 | 1015.7 |
| 20260502234517 | 11 | 227 | 0.0 | 4.8 | 0.00 | 0.00 | 0.00 | 56 | 1015.7 |
| 20260502234014 | 11 | 227 | 0.0 | 4.8 | 0.00 | 0.00 | 0.00 | 52 | 1015.6 |
| 20260502233523 | 12 | 209 | 0.0 | 8.0 | 0.00 | 0.00 | 0.00 | 48 | 1015.7 |
| 20260502233019 | 12 | 102 | 0.0 | 8.0 | 0.00 | 0.00 | 0.00 | 47 | 1015.5 |
| 20260502232537 | 12 | 135 | 0.0 | 0.0 | 0.00 | 0.00 | 0.00 | 47 | 1015.5 |
| 20260502232026 | 12 | 135 | 0.0 | 1.6 | 0.00 | 0.00 | 0.00 | 46 | 1015.5 |
| 20260502231524 | 12 | 135 | 0.0 | 11.3 | 0.00 | 0.00 | 0.00 | 46 | 1015.5 |
| 20260502231031 | 12 | 132 | 0.0 | 11.3 | 0.00 | 0.00 | 0.00 | 46 | 1015.4 |
| 20260502230530 | 12 | 267 | 0.0 | 0.0 | 0.00 | 0.00 | 0.00 | 48 | 1015.4 |
| 20260502230017 | 12 | 267 | 0.0 | 11.3 | 0.00 | 0.00 | 0.00 | 44 | 1015.3 |
| 20260502225554 | 12 | 267 | 0.0 | 11.3 | 0.00 | 0.00 | 0.00 | 45 | 1015.3 |
| 20260502225051 | 12 | 296 | 1.6 | 9.7 | 0.00 | 0.00 | 0.00 | 45 | 1015.3 |
| 20260502224519 | 12 | 220 | 1.6 | 16.1 | 0.00 | 0.00 | 0.00 | 44 | 1015.2 |
| 20260502224027 | 12 | 252 | 1.6 | 8.0 | 0.00 | 0.00 | 0.00 | 45 | 1015.2 |
| 20260502223516 | 12 | 198 | 0.0 | 8.0 | 0.00 | 0.00 | 0.00 | 46 | 1015.2 |
| 20260502223033 | 12 | 291 | 1.6 | 11.3 | 0.00 | 0.00 | 0.00 | 48 | 1015.2 |
| 20260502222551 | 12 | 272 | 4.8 | 11.3 | 0.00 | 0.00 | 0.00 | 44 | 1015.2 |
| 20260502222018 | 12 | 198 | 1.6 | 11.3 | 0.00 | 0.00 | 0.00 | 46 | 1015.2 |
| 20260502221535 | 12 | 223 | 4.8 | 11.3 | 0.00 | 0.00 | 0.00 | 46 | 1015.2 |
| 20260502221034 | 12 | 234 | 526.3 | 526.3 | 0.00 | 0.00 | 0.00 | 44 | 1014.9 |
| 20260502220522 | 13 | 240 | 3.2 | 11.3 | 0.00 | 0.00 | 0.00 | 45 | 1015.1 |
| 20260502220019 | 13 | 254 | 6.4 | 9.7 | 0.00 | 0.00 | 0.00 | 46 | 1014.9 |
| 20260502215523 | 13 | 249 | 0.0 | 12.9 | 0.00 | 0.00 | 0.00 | 44 | 1015.0 |
| 20260502215021 | 13 | 254 | 1.6 | 12.9 | 0.00 | 0.00 | 0.00 | 43 | 1014.9 |
| 20260502214538 | 13 | 110 | 3.2 | 12.9 | 0.00 | 0.00 | 0.00 | 42 | 1014.8 |
| 20260502214026 | 13 | 302 | 3.2 | 11.3 | 0.00 | 0.00 | 0.00 | 46 | 1014.9 |
| 20260502213515 | 13 | 240 | 3.2 | 11.3 | 0.00 | 0.00 | 0.00 | 46 | 1014.9 |
| 20260502213014 | 13 | 268 | 0.0 | 12.9 | 0.00 | 0.00 | 0.00 | 46 | 1014.9 |
| 20260502212523 | 13 | 270 | 1.6 | 12.9 | 0.00 | 0.00 | 0.00 | 45 | 1014.9 |
| 20260502212041 | 13 | 251 | 4.8 | 12.9 | 0.00 | 0.00 | 0.00 | 45 | 1014.8 |
| 20260502211517 | 13 | 227 | 1.6 | 11.3 | 0.00 | 0.00 | 0.00 | 46 | 1014.8 |
| 20260502211025 | 13 | 168 | 1.6 | 11.3 | 0.00 | 0.00 | 0.00 | 43 | 1014.7 |
| 20260502210531 | 13 | 155 | 1.6 | 11.3 | 0.00 | 0.00 | 0.00 | 44 | 1014.8 |
| 20260502210020 | 13 | 88 | 3.2 | 11.3 | 0.00 | 0.00 | 0.00 | 42 | 1014.8 |
| 20260502205537 | 13 | 210 | 1.6 | 8.0 | 0.00 | 0.00 | 0.00 | 48 | 1014.8 |
| 20260502205026 | 13 | 259 | 1.6 | 9.7 | 0.00 | 0.00 | 0.00 | 47 | 1014.8 |
| 20260502204523 | 13 | 259 | 3.2 | 9.7 | 0.00 | 0.00 | 0.00 | 50 | 1014.8 |
| 20260502204031 | 12 | 266 | 4.8 | 14.5 | 0.00 | 0.00 | 0.00 | 46 | 1015.0 |
| 20260502203528 | 13 | 278 | 3.2 | 14.5 | 0.00 | 0.00 | 0.00 | 45 | 1014.9 |
| 20260502203016 | 13 | 159 | 0.0 | 9.7 | 0.00 | 0.00 | 0.00 | 45 | 1015.1 |
| 20260502202534 | 13 | 265 | 4.8 | 9.7 | 0.00 | 0.00 | 0.00 | 46 | 1015.0 |
| 20260502202024 | 13 | 185 | 526.3 | 526.3 | 0.00 | 0.00 | 0.00 | 51 | 1014.8 |
| 20260502201522 | 13 | 142 | 3.2 | 8.0 | 0.00 | 0.00 | 0.00 | 46 | 1015.1 |
| 20260502201029 | 13 | 107 | 3.2 | 9.7 | 0.00 | 0.00 | 0.00 | 48 | 1015.1 |
| 20260502200528 | 12 | 259 | 0.0 | 8.0 | 0.00 | 0.00 | 0.00 | 50 | 1015.2 |
| 20260502200015 | 12 | 193 | 0.0 | 6.4 | 0.00 | 0.00 | 0.00 | 51 | 1015.2 |
| 20260502195534 | 12 | 175 | 0.0 | 6.4 | 0.00 | 0.00 | 0.00 | 50 | 1015.3 |
| 20260502195042 | 12 | 128 | 0.0 | 0.0 | 0.00 | 0.00 | 0.00 | 51 | 1015.3 |
| 20260502194518 | 12 | 128 | 0.0 | 4.8 | 0.00 | 0.00 | 0.00 | 47 | 1015.3 |
| 20260502194035 | 12 | 128 | 0.0 | 4.8 | 0.00 | 0.00 | 0.00 | 47 | 1015.3 |
| 20260502193548 | 13 | 195 | 0.0 | 4.8 | 0.00 | 0.00 | 0.00 | 48 | 1015.3 |
| 20260502193037 | 13 | 140 | 0.0 | 8.0 | 0.00 | 0.00 | 0.00 | 46 | 1015.4 |
| 20260502192555 | 12 | 146 | 3.2 | 9.7 | 0.00 | 0.00 | 0.00 | 47 | 1015.4 |
| 20260502192044 | 13 | 126 | 1.6 | 9.7 | 0.00 | 0.00 | 0.00 | 47 | 1015.5 |
| 20260502191542 | 13 | 282 | 0.0 | 4.8 | 0.00 | 0.00 | 0.00 | 47 | 1015.6 |
| 20260502191050 | 13 | 236 | 0.0 | 4.8 | 0.00 | 0.00 | 0.00 | 45 | 1015.5 |
| 20260502190528 | 13 | 337 | 0.0 | 9.7 | 0.00 | 0.00 | 0.00 | 45 | 1015.6 |
| 20260502190035 | 13 | 297 | 3.2 | 12.9 | 0.00 | 0.00 | 0.00 | 46 | 1015.6 |
| 20260502185532 | 13 | 290 | 6.4 | 12.9 | 0.00 | 0.00 | 0.00 | 45 | 1015.6 |
| 20260502185052 | 13 | 304 | 6.4 | 12.9 | 0.00 | 0.00 | 0.00 | 48 | 1015.8 |
| 20260502184527 | 12 | 283 | 1.6 | 9.7 | 0.00 | 0.00 | 0.00 | 47 | 1015.9 |
| 20260502184106 | 12 | 247 | 0.0 | 12.9 | 0.00 | 0.00 | 0.00 | 48 | 1015.9 |
| 20260502183534 | 12 | 310 | 4.8 | 16.1 | 0.00 | 0.00 | 0.00 | 46 | 1016.0 |
| 20260502182538 | 12 | 273 | 6.4 | 16.1 | 0.00 | 0.00 | 0.00 | 44 | 1015.9 |
| 20260502182036 | 13 | 262 | 1.6 | 9.7 | 0.00 | 0.00 | 0.00 | 46 | 1016.0 |
| 20260502181554 | 12 | 229 | 0.0 | 9.7 | 0.00 | 0.00 | 0.00 | 48 | 1016.0 |
| 20260502181042 | 12 | 204 | 1.6 | 6.4 | 0.00 | 0.00 | 0.00 | 50 | 1016.0 |
| 20260502180530 | 12 | 144 | 0.0 | 8.0 | 0.00 | 0.00 | 0.00 | 48 | 1016.1 |
| 20260502164039 | 13 | 302 | 3.2 | 22.5 | 0.00 | 0.00 | 0.00 | 53 | 1016.5 |
| 20260502163538 | 13 | 122 | 1.6 | 22.5 | 0.00 | 0.00 | 0.00 | 47 | 1016.4 |
| 20260502163045 | 13 | 254 | 6.4 | 17.7 | 0.00 | 0.00 | 0.00 | 54 | 1016.5 |
| 20260502162542 | 13 | 276 | 4.8 | 17.7 | 0.00 | 0.00 | 0.00 | 46 | 1016.6 |
| 20260502161531 | 12 | 317 | 9.7 | 16.1 | 0.00 | 0.00 | 0.00 | 46 | 1016.6 |
| 20260502161050 | 13 | 17 | 1.6 | 12.9 | 0.00 | 0.00 | 0.00 | 50 | 1016.7 |
| 20260502160527 | 13 | 284 | 4.8 | 14.5 | 0.00 | 0.00 | 0.00 | 54 | 1016.7 |
| 20260502160117 | 13 | 174 | 0.0 | 14.5 | 0.00 | 0.00 | 0.00 | 50 | 1016.7 |
| 20260502151532 | 12 | 71 | 3.2 | 12.9 | 0.00 | 0.00 | 0.00 | 52 | 1017.1 |
| 20260502151049 | 12 | 104 | 1.6 | 12.9 | 0.00 | 0.00 | 0.00 | 57 | 1017.0 |
| 20260502150558 | 12 | 167 | 0.0 | 8.0 | 0.00 | 0.00 | 0.00 | 54 | 1016.9 |
| 20260502123526 | 3 | 126 | 0.0 | 0.0 | 0.00 | 0.00 | 0.00 | 96 | 1017.3 |
| 20260502123024 | 3 | 126 | 0.0 | 0.0 | 0.00 | 0.00 | 0.00 | 96 | 1017.2 |
| 20260502122528 | 3 | 126 | 0.0 | 0.0 | 0.00 | 0.00 | 0.00 | 96 | 1017.1 |
| 20260502122026 | 3 | 126 | 0.0 | 0.0 | 0.00 | 0.00 | 0.00 | 96 | 1017.1 |
| 20260502121604 | 3 | 126 | 0.0 | 0.0 | 0.00 | 0.00 | 0.00 | 96 | 1017.2 |
| 20260502121140 | 3 | 126 | 0.0 | 0.0 | 0.00 | 0.00 | 0.00 | 96 | 1017.1 |
| 20260502120551 | 3 | 126 | 0.0 | 0.0 | 0.00 | 0.00 | 0.00 | 96 | 1017.1 |
| 20260502120109 | 3 | 126 | 0.0 | 0.0 | 0.00 | 0.00 | 0.00 | 96 | 1017.1 |
| 20260502115537 | 3 | 126 | 0.0 | 0.0 | 0.00 | 0.00 | 0.00 | 96 | 1017.1 |
| 20260502115026 | 3 | 126 | 0.0 | 0.0 | 0.00 | 0.00 | 0.00 | 96 | 1016.9 |
| 20260502114031 | 3 | 126 | 0.0 | 0.0 | 0.00 | 0.00 | 0.00 | 96 | 1016.9 |
| 20260502113529 | 3 | 126 | 0.0 | 0.0 | 0.00 | 0.00 | 0.00 | 96 | 1016.9 |
| 20260502113106 | 2 | 126 | 0.0 | 0.0 | 0.00 | 0.00 | 0.00 | 96 | 1016.8 |
| 20260502112532 | 2 | 126 | 0.0 | 0.0 | 0.00 | 0.00 | 0.00 | 96 | 1016.9 |
| 20260502112028 | 2 | 126 | 0.0 | 0.0 | 0.00 | 0.00 | 0.00 | 96 | 1016.9 |
| 20260502111605 | 2 | 126 | 0.0 | 0.0 | 0.00 | 0.00 | 0.00 | 96 | 1016.8 |
| 20260502111032 | 2 | 126 | 0.0 | 0.0 | 0.00 | 0.00 | 0.00 | 96 | 1016.8 |
| 20260502110605 | 2 | 126 | 0.0 | 0.0 | 0.00 | 0.00 | 0.00 | 96 | 1016.7 |
| 20260502105559 | 2 | 126 | 0.0 | 0.0 | 0.00 | 0.00 | 0.00 | 96 | 1016.7 |
| 20260502105046 | 2 | 126 | 0.0 | 0.0 | 0.00 | 0.00 | 0.00 | 95 | 1016.5 |
| 20260502104542 | 2 | 126 | 0.0 | 0.0 | 0.00 | 0.00 | 0.00 | 95 | 1016.6 |
| 20260502104041 | 2 | 126 | 0.0 | 0.0 | 0.00 | 0.00 | 0.00 | 95 | 1016.7 |
| 20260502103536 | 2 | 126 | 0.0 | 0.0 | 0.00 | 0.00 | 0.00 | 95 | 1016.6 |
| 20260502103052 | 2 | 126 | 0.0 | 0.0 | 0.00 | 0.00 | 0.00 | 96 | 1016.5 |
| 20260502102528 | 2 | 126 | 0.0 | 0.0 | 0.00 | 0.00 | 0.00 | 96 | 1016.5 |
| 20260502102036 | 2 | 126 | 0.0 | 0.0 | 0.00 | 0.00 | 0.00 | 96 | 1016.6 |
| 20260502091028 | 3 | 126 | 0.0 | 0.0 | 0.00 | 0.00 | 0.00 | 95 | 1017.0 |
| 20260502064546 | 3 | 126 | 0.0 | 0.0 | 0.00 | 0.00 | 0.00 | 95 | 1016.7 |
| 20260502062030 | 2 | 126 | 0.0 | 0.0 | 0.00 | 0.00 | 0.00 | 94 | 1016.7 |
| 20260502060538 | 3 | 126 | 0.0 | 0.0 | 0.00 | 0.00 | 0.00 | 94 | 1017.0 |
| 20260502054528 | 3 | 126 | 0.0 | 0.0 | 0.00 | 0.00 | 0.00 | 94 | 1017.1 |
| 20260502053038 | 2 | 126 | 0.0 | 0.0 | 0.00 | 0.00 | 0.00 | 93 | 1017.2 |
| 20260502051540 | 3 | 126 | 0.0 | 0.0 | 0.00 | 0.00 | 0.00 | 92 | 1017.2 |
| 20260502051028 | 3 | 126 | 0.0 | 0.0 | 0.00 | 0.00 | 0.00 | 92 | 1017.2 |
| 20260502050524 | 3 | 126 | 0.0 | 0.0 | 0.00 | 0.00 | 0.00 | 93 | 1017.3 |
| 20260502050033 | 3 | 126 | 0.0 | 0.0 | 0.00 | 0.00 | 0.00 | 93 | 1017.3 |
| 20260502035030 | 5 | 126 | 0.0 | 0.0 | 0.00 | 0.00 | 0.00 | 91 | 1017.3 |
| 20260502031534 | 6 | 126 | 0.0 | 0.0 | 0.00 | 0.00 | 0.00 | 87 | 1017.1 |
| 20260502024527 | 7 | 126 | 0.0 | 0.0 | 0.00 | 0.00 | 0.00 | 85 | 1017.1 |
| 20260502024023 | 7 | 126 | 0.0 | 0.0 | 0.00 | 0.00 | 0.00 | 84 | 1017.2 |
| 20260502021049 | 8 | 126 | 0.0 | 0.0 | 0.00 | 0.00 | 0.00 | 79 | 1016.9 |